Regional Weather Roundup
Issued by NWS

Home | Current Version | Previous Version | Graphics & Text | Print | Product List | Glossary On
Versions: 1 2 3 4 5 6 7 8 9 10 11 12 13 14 15 16 17 18 19 20 21 22 23 24 25 26 27 28
000
ASUS45 KCYS 220910
RWRWY

WYOMING REGIONAL WEATHER ROUNDUP
NATIONAL WEATHER SERVICE CHEYENNE WY
300 AM MDT MON MAY 22 2017

NOTE:  "FAIR" INDICATES FEW OR NO CLOUDS BELOW 12,000 FEET
WITH NO SIGNIFICANT WEATHER AND/OR OBSTRUCTIONS TO VISIBILITY.

WYZ001-221000-
YELLOWSTONE NATIONAL PARK

CITY           SKY/WX    TMP DP  RH WIND       PRES   REMARKS
LK YELLOWSTONE   N/A     27  24  89 CALM      30.36S
W YELLOWSTONE  NOT AVBL

$$
WYZ002>013-054>058-071-098>099-221000-
NORTHERN WYOMING

CITY           SKY/WX    TMP DP  RH WIND       PRES   REMARKS
JACKSON        FAIR      34  27  75 CALM      30.32R
CODY           FAIR      49  37  63 NW3       30.22R
GREYBULL       CLOUDY    48  34  58 E5        30.16S
WORLAND        CLOUDY    45  40  82 E3        30.17S
SHERIDAN       CLOUDY    55  35  47 NW23      30.12R
BUFFALO        FAIR      48  33  56 W12       30.13F
GILLETTE       MOCLDY    47  38  71 W13       30.09F
HULETT         DRIZZLE   45  41  87 SW12      30.09R
NEWCASTLE      FAIR      37  36  93 NE3       30.12F

$$
WYZ014>020-022>026-101>103-221000-
CENTRAL WYOMING

CITY           SKY/WX    TMP DP  RH WIND       PRES   REMARKS
BIG PINEY      FAIR      32  30  92 N8        30.33S WCI  25
PINEDALE       FAIR      30  30 100 N7        30.34F WCI  23
DUBOIS         FAIR      34  28  80 W7        30.29F WCI  28
LANDER         FAIR      43  33  68 W5        30.22F
RIVERTON       FAIR      40  37  89 W7        30.23F
CASPER         FAIR      38  35  89 SW10      30.20F WCI  31
DOUGLAS        FAIR      37  34  89 N5        30.18F WCI  33

$$
WYZ021-027>030-104>119-221000-
SOUTHERN WYOMING

CITY           SKY/WX    TMP DP  RH WIND       PRES   REMARKS
EVANSTON       FAIR      39  38  96 S3        30.32F
KEMMERER         N/A     34  32  93 N8        30.33F WCI  27
FORT BRIDGER   FAIR      37  37 100 W8        30.35S WCI  31
ROCK SPRINGS   FAIR      38  34  85 SW6       30.31S WCI  33
DIXON            N/A     34  32  92 E5        30.32S WCI  30
RAWLINS        FAIR      32  28  85 CALM      30.27F
SARATOGA       FAIR      32  32 100 S5        30.30S WCI  27
LARAMIE        FAIR      31  30  96 S5        30.26S WCI  26
CHEYENNE       FAIR      37  32  82 W10       30.22F WCI  30
TORRINGTON     FAIR      39  38  96 W5        30.14F
PINE BLUFFS    FAIR      34  34 100 CALM      30.21F

$$




USA.gov is the U.S. government's official web portal to all federal, state and local government web resources and services.